KM6AHX-12 Weather Reports


Display with metric or nautical units.
time (UTC)temp
F
wind
direction
speed
MPH
gust
MPH
rain 1hr
in
rain 24hr
in
rain mn
in
humidity
%
barometer
mb
20211026141111 46 90 0.0 0.0 0.00 0.00 0.00 100
20211026140910 46 90 0.0 0.0 0.00 0.00 0.00 100
20211026140709 46 90 0.0 0.0 0.00 0.00 0.00 100
20211026140105 46 90 0.0 0.0 0.00 0.00 0.00 100
20211026135142 47 90 0.0 0.0 0.00 0.00 0.00 100
20211026134840 47 90 0.0 0.0 0.00 0.00 0.00 100
20211026134538 47 120 2.0 0.0 0.00 0.00 0.00 100
20211026133936 47 12 3.0 0.0 0.00 0.00 0.00 100
20211026133031 45 92 0.0 0.0 0.00 0.00 0.00 100
20211026132730 46 92 0.0 0.0 0.00 0.00 0.00 100
20211026131826 45 92 0.0 0.0 0.00 0.00 0.00 100
20211026131524 46 92 0.0 0.0 0.00 0.00 0.00 100
20211026131223 47 92 0.0 0.0 0.00 0.00 0.00 100
20211026130620 46 92 0.0 0.0 0.00 0.00 0.00 100
20211026130017 46 92 0.0 0.0 0.00 0.00 0.00 100
20211026125414 47 106 1.0 0.0 0.00 0.00 0.00 100
20211026124811 47 75 0.0 0.0 0.00 0.00 0.00 100
20211026124510 47 75 0.0 0.0 0.00 0.00 0.00 100
20211026124208 47 75 0.0 0.0 0.00 0.00 0.00 100
20211026123303 47 84 1.0 0.0 0.00 0.00 0.00 100
20211026123002 48 84 0.0 0.0 0.00 0.00 0.00 100
20211026122701 48 84 0.0 0.0 0.00 0.00 0.00 100
20211026122359 49 84 0.0 0.0 0.00 0.00 0.00 100
20211026121154 49 345 4.0 0.0 0.00 0.00 0.00 100
20211026115948 48 47 4.0 0.0 0.00 0.00 0.00 100
20211026115647 47 37 1.0 0.0 0.00 0.00 0.00 100
20211026115044 47 18 5.0 0.0 0.00 0.00 0.00 100
20211026113838 47 333 5.0 0.0 0.00 0.00 0.00 100
20211026113536 47 352 5.0 0.0 0.00 0.00 0.00 100
20211026112934 47 75 0.0 0.0 0.00 0.00 0.00 100
20211026111426 47 75 0.0 0.0 0.00 0.00 0.00 100
20211026111125 47 75 0.0 0.0 0.00 0.00 0.00 100
20211026110522 47 75 0.0 0.0 0.00 0.00 0.00 100
20211026105618 48 75 0.0 0.0 0.00 0.00 0.00 100
20211026105317 48 75 0.0 0.0 0.00 0.00 0.00 100
20211026104111 47 75 0.0 0.0 0.00 0.00 0.00 100
20211026103508 47 75 0.0 0.0 0.00 0.00 0.00 100
20211026102905 47 75 0.0 0.0 0.00 0.00 0.00 100
20211026102604 47 75 0.0 0.0 0.00 0.00 0.00 100
20211026102305 47 75 0.0 0.0 0.00 0.00 0.00 100
20211026101659 47 70 1.0 0.0 0.00 0.00 0.00 100
20211026101358 47 77 2.0 0.0 0.00 0.00 0.00 100
20211026101056 47 85 0.0 0.0 0.00 0.00 0.00 100
20211026100755 48 85 0.0 0.0 0.00 0.00 0.00 100
20211026100152 48 85 0.0 0.0 0.00 0.00 0.00 100
20211026095549 48 94 1.0 0.0 0.00 0.00 0.00 100
20211026095248 49 120 0.0 0.0 0.00 0.00 0.00 100
20211026094946 49 120 0.0 0.0 0.00 0.00 0.00 100
20211026094645 49 237 0.0 0.0 0.00 0.00 0.00 100
20211026094343 49 237 0.0 0.0 0.00 0.00 0.00 100
20211026093740 49 237 0.0 0.0 0.00 0.00 0.00 100
20211026093440 50 237 0.0 0.0 0.00 0.00 0.00 100
20211026093138 51 237 0.0 0.0 0.00 0.00 0.00 100
20211026092836 51 80 0.0 0.0 0.00 0.00 0.00 100
20211026092535 51 73 3.0 0.0 0.00 0.00 0.00 100
20211026091932 50 67 3.0 0.0 0.00 0.00 0.00 100
20211026091632 50 61 2.0 0.0 0.00 0.00 0.00 100
20211026090726 50 136 0.0 0.0 0.00 0.00 0.00 100
20211026090424 50 136 0.0 0.0 0.00 0.00 0.00 100
20211026085820 49 46 1.0 0.0 0.00 0.00 0.00 100
20211026085520 48 61 5.0 0.0 0.00 0.00 0.00 100
20211026085219 47 67 0.0 0.0 0.00 0.00 0.00 100
20211026084615 48 78 2.0 0.0 0.00 0.00 0.00 100
20211026084314 48 28 0.0 0.0 0.00 0.00 0.00 100
20211026083711 49 102 0.0 0.0 0.00 0.00 0.00 100
20211026083410 49 118 1.0 0.0 0.00 0.00 0.00 100
20211026083108 49 64 0.0 0.0 0.00 0.00 0.00 100
20211026082204 50 64 0.0 0.0 0.00 0.00 0.00 100
20211026081902 51 95 0.0 0.0 0.00 0.00 0.00 100
20211026081600 51 95 0.0 0.0 0.00 0.00 0.00 100
20211026081259 52 95 0.0 0.0 0.00 0.00 0.00 100
20211026080957 52 95 0.0 0.0 0.00 0.00 0.00 100
20211026080656 52 43 3.0 0.0 0.00 0.00 0.00 100
20211026080355 52 81 4.0 0.0 0.00 0.00 0.00 100
20211026080053 52 97 4.0 0.0 0.00 0.00 0.00 100
20211026075752 52 49 4.0 0.0 0.00 0.00 0.00 100
20211026075451 52 84 5.0 0.0 0.00 0.00 0.00 100
20211026075149 53 35 4.0 0.0 0.00 0.00 0.00 100
20211026074546 52 22 6.0 0.0 0.00 0.00 0.00 100
20211026073943 52 36 4.0 0.0 0.00 0.00 0.00 100
20211026073642 52 23 6.0 0.0 0.00 0.00 0.00 100
20211026073341 52 25 6.0 0.0 0.00 0.00 0.00 100
20211026072738 52 68 6.0 0.0 0.00 0.00 0.00 100
20211026072135 52 61 7.0 0.0 0.00 0.00 0.00 100
20211026071834 52 57 8.0 0.0 0.00 0.00 0.00 100
20211026071532 52 80 10.0 0.0 0.00 0.00 0.00 100
20211026070929 52 52 7.0 0.0 0.00 0.00 0.00 100
20211026070628 52 60 7.0 0.0 0.00 0.00 0.00 100
20211026070025 51 29 7.0 0.0 0.00 0.00 0.00 100
20211026065724 51 75 5.0 0.0 0.00 1.19 0.00 100
20211026064820 51 45 8.0 0.0 0.00 1.19 0.00 100
20211026064519 52 61 6.0 0.0 0.00 1.19 0.00 100
20211026063916 51 64 6.0 0.0 0.00 1.19 0.00 100
20211026063614 51 67 4.0 0.0 0.00 1.19 0.00 100
20211026062711 50 115 0.0 0.0 0.00 1.19 0.00 100
20211026062409 51 345 0.0 0.0 0.00 1.19 0.00 100
20211026062107 51 345 0.0 0.0 0.00 1.19 0.00 100
20211026061805 51 345 0.0 0.0 0.00 1.19 0.00 100
20211026061505 52 329 2.0 0.0 0.00 1.19 0.00 100
20211026061203 52 5 1.0 0.0 0.00 1.19 0.00 100
20211026060600 52 358 3.0 0.0 0.00 1.19 0.00 100
20211026060259 52 25 4.0 0.0 0.00 1.19 0.00 100
20211026055656 51 50 4.0 0.0 0.00 1.19 0.00 100
20211026055355 51 112 0.0 0.0 0.00 1.19 0.00 100
20211026055053 51 112 0.0 0.0 0.00 1.19 0.00 100
20211026054450 51 112 0.0 0.0 0.00 1.19 0.00 100
20211026054149 52 112 0.0 0.0 0.00 1.19 0.00 100
20211026053244 52 75 3.0 0.0 0.00 1.19 0.00 100
20211026052943 52 42 2.0 0.0 0.00 1.19 0.00 100
20211026052339 51 35 4.0 0.0 0.00 1.19 0.00 100
20211026052038 51 53 4.0 0.0 0.00 1.19 0.00 100
20211026051134 51 56 4.0 0.0 0.00 1.19 0.00 100
20211026050832 51 82 2.0 0.0 0.00 1.19 0.00 100
20211026050531 51 106 3.0 0.0 0.00 1.19 0.00 100
20211026045928 51 45 0.0 0.0 0.00 1.19 0.00 100
20211026045325 51 37 0.0 0.0 0.00 1.19 0.00 100
20211026045023 51 37 0.0 0.0 0.00 1.19 0.00 100
20211026044722 51 37 0.0 0.0 0.00 1.19 0.00 100
20211026043516 51 37 0.0 0.0 0.00 1.19 0.00 100
20211026043215 51 37 0.0 0.0 0.00 1.19 0.00 100
20211026042310 51 37 0.0 0.0 0.00 1.19 0.00 100
20211026042008 51 37 0.0 0.0 0.00 1.19 0.00 100
20211026041707 51 37 0.0 0.0 0.00 1.19 0.00 100
20211026041406 51 81 0.0 0.0 0.00 1.19 0.00 100
20211026040802 52 81 2.0 0.0 0.00 1.18 0.00 100
20211026040501 51 122 0.0 0.0 0.00 1.18 0.00 100
20211026040200 52 122 0.0 0.0 0.00 1.18 0.00 100
20211026035858 52 122 0.0 0.0 0.00 1.18 0.00 100
20211026034351 53 67 0.0 0.0 0.00 1.18 0.00 100
20211026033146 52 67 0.0 0.0 0.00 1.18 0.00 100
20211026032543 52 67 0.0 0.0 0.00 1.18 0.00 100
20211026032241 52 331 0.0 0.0 0.00 1.18 0.00 100
20211026031639 53 331 0.0 0.0 0.00 1.18 0.00 100
20211026031036 54 331 0.0 0.0 0.00 1.18 0.00 100
20211026030734 53 320 2.0 0.0 0.00 1.18 0.00 100
20211026030433 54 25 0.0 0.0 0.00 1.18 0.00 100
20211026030131 53 52 3.0 0.0 0.00 1.18 0.00 100
20211026025529 53 16 0.0 0.0 0.00 1.18 0.00 100
20211026024925 53 25 4.0 0.0 0.00 1.18 0.00 100
20211026024624 52 78 2.0 0.0 0.00 1.18 0.00 100
20211026023720 54 95 0.0 0.0 0.00 1.18 0.00 100
20211026023419 54 95 0.0 0.0 0.00 1.18 0.00 100
20211026023117 53 30 0.0 0.0 0.00 1.18 0.00 100
20211026022816 54 30 0.0 0.0 0.00 1.18 0.00 100
20211026022514 54 22 0.0 0.0 0.00 1.18 0.00 100
20211026022213 54 12 1.0 0.0 0.00 1.18 0.00 100
20211026021911 54 292 0.0 0.0 0.00 1.18 0.00 100
20211026021610 54 292 0.0 0.0 0.00 1.18 0.00 100
20211026021308 54 292 0.0 0.0 0.00 1.18 0.00 100
20211026021006 54 292 0.0 0.0 0.00 1.18 0.00 100
20211026020705 55 329 0.0 0.0 0.00 1.18 0.00 100
20211026020403 55 329 0.0 0.0 0.00 1.18 0.00 100
20211026015801 54 329 0.0 0.0 0.00 1.18 0.00 100
20211026015500 55 329 1.0 0.0 0.00 1.18 0.00 100
20211026014857 55 258 2.0 0.0 0.00 1.18 0.00 100
20211026013123 55 323 0.0 0.0 0.00 1.18 0.00 100
20211026012920 55 323 0.0 0.0 0.00 1.18 0.00 100
20211026012517 54 323 0.0 0.0 0.00 1.18 0.00 100
20211026012316 55 323 0.0 0.0 0.00 1.18 0.00 100
20211026012116 55 323 0.0 0.0 0.00 1.18 0.00 100
20211026011310 54 323 0.0 0.0 0.00 1.18 0.00 100
20211026010706 55 323 0.0 0.0 0.00 1.18 0.00 100
20211026010505 55 323 0.0 0.0 0.00 1.18 0.00 100
20211026005658 55 323 0.0 0.0 0.00 1.18 0.00 100
20211026005457 55 225 0.0 0.0 0.00 1.18 0.00 100
20211026005054 55 225 0.0 0.0 0.00 1.18 0.00 100
20211026004249 55 239 1.0 0.0 0.00 1.18 0.00 100
20211026004048 55 277 0.0 0.0 0.00 1.18 0.00 100
20211026003846 55 306 3.0 0.0 0.00 1.18 0.00 100
20211026003645 55 295 1.0 0.0 0.00 1.18 0.00 100
20211026003443 55 255 1.0 0.0 0.00 1.18 0.00 100
20211026002839 55 357 0.0 0.0 0.00 1.18 0.00 100
20211026001429 54 279 5.0 0.0 0.00 1.18 0.00 100
20211026001229 55 232 4.0 0.0 0.00 1.18 0.00 100
20211026000624 55 278 6.0 0.0 0.00 1.18 0.00 100
20211026000424 54 264 7.0 0.0 0.00 1.18 0.00 100
20211025234812 54 298 4.0 0.0 0.00 1.18 0.00 100
20211025234611 54 316 6.0 0.0 0.00 1.18 0.00 100
20211025234410 54 285 6.0 0.0 0.00 1.18 0.00 100
20211025234207 54 320 7.0 0.0 0.00 1.18 0.00 100
20211025233806 54 319 3.0 0.0 0.00 1.18 0.00 100
20211025233403 54 309 0.0 0.0 0.00 1.18 0.00 100
20211025233202 54 272 4.0 0.0 0.00 1.18 0.00 100
20211025233001 54 268 5.0 0.0 0.00 1.18 0.00 100
20211025232558 54 300 5.0 0.0 0.00 1.18 0.00 100
20211025232357 55 253 2.0 0.0 0.00 1.18 0.00 100
20211025231753 54 291 2.0 0.0 0.00 1.18 0.00 100
20211025230947 55 254 4.0 0.0 0.00 1.18 0.00 100
20211025230746 54 295 7.0 0.0 0.00 1.18 0.00 100
20211025225940 55 286 6.0 0.0 0.00 1.18 0.00 100
20211025225135 55 254 8.0 0.0 0.00 1.18 0.00 100
20211025224933 55 282 5.0 0.0 0.00 1.18 0.00 100
20211025224731 55 248 5.0 0.0 0.00 1.18 0.00 100
20211025223926 55 298 0.0 0.0 0.00 1.18 0.00 100
20211025223523 55 298 0.0 0.0 0.00 1.18 0.00 100
20211025223322 54 336 4.0 0.0 0.00 1.18 0.00 100
20211025222920 55 340 5.0 0.0 0.00 1.18 0.00 100
20211025222717 55 291 4.0 0.0 0.00 1.18 0.00 100
20211025222315 54 327 7.0 0.0 0.00 1.18 0.00 100
20211025221711 54 279 4.0 0.0 0.00 1.17 0.00 100
20211025221509 54 303 3.0 0.0 0.00 1.17 0.00 100
20211025221308 55 312 4.0 0.0 0.00 1.17 0.00 100
20211025221107 54 315 1.0 0.0 0.00 1.17 0.00 100
20211025220502 55 343 5.0 0.0 0.00 1.17 0.00 100
20211025220301 54 270 3.0 0.0 0.00 1.17 0.00 100
20211025220059 55 326 1.0 0.0 0.00 1.17 0.00 100
20211025215938 55 319 3.0 0.0 0.00 1.16 0.00 100
20211025215858 55 319 3.0 0.0 0.00 1.16 0.00 100
20211025215657 55 298 6.0 0.0 0.00 1.16 0.00 100
20211025215455 54 275 5.0 0.0 0.00 1.16 0.00 100
20211025215052 54 292 4.0 0.0 0.00 1.16 0.00 100
20211025214851 54 260 6.0 0.0 0.00 1.16 0.00 100
20211025214650 55 282 6.0 0.0 0.00 1.15 0.00 100
20211025214448 55 285 8.0 0.0 0.00 1.15 0.00 100
20211025214045 55 326 5.0 0.0 0.00 1.14 0.00 100
20211025214032 54 320 4.0 0.0 0.00 1.13 0.00 100
20211025213441 54 320 4.0 0.0 0.00 1.13 0.00 100
20211025213039 55 275 8.0 0.0 0.00 1.12 0.00 100
20211025212837 55 300 12.0 0.0 0.00 1.12 0.00 100
20211025212636 54 295 4.0 0.0 0.00 1.11 0.00 100
20211025212233 54 315 6.0 0.0 0.00 1.11 0.00 100
20211025212030 55 281 12.0 0.0 0.00 1.10 0.00 100
20211025211629 55 309 13.0 0.0 0.00 1.08 0.00 100
20211025210622 57 262 9.0 0.0 0.00 1.06 0.00 100
20211025210423 57 275 8.0 0.0 0.00 1.05 0.00 100
20211025205616 58 153 2.0 0.0 0.00 0.94 0.00 100
20211025205414 58 226 6.0 0.0 0.00 0.93 0.00 100
20211025205213 58 213 5.0 0.0 0.00 0.93 0.00 100
20211025204609 57 292 2.0 0.0 0.00 0.87 0.00 100
20211025204408 57 300 4.0 0.0 0.00 0.84 0.00 100
20211025204005 58 233 4.0 0.0 0.00 0.79 0.00 100
20211025203804 57 244 2.0 0.0 0.00 0.78 0.00 100
20211025203602 57 149 9.0 0.0 0.00 0.77 0.00 100
20211025202757 57 160 6.0 0.0 0.00 0.71 0.00 100
20211025202555 57 133 6.0 0.0 0.00 0.71 0.00 100
20211025202354 57 144 8.0 0.0 0.00 0.69 0.00 100
20211025202153 57 137 8.0 0.0 0.00 0.68 0.00 100
20211025201951 57 116 7.0 0.0 0.00 0.67 0.00 100
20211025201750 57 189 2.0 0.0 0.00 0.66 0.00 100
20211025201347 57 163 2.0 0.0 0.00 0.63 0.00 100
20211025200542 57 243 4.0 0.0 0.00 0.58 0.00 100
20211025195938 57 203 6.0 0.0 0.00 0.55 0.00 100
20211025195535 56 212 7.0 0.0 0.00 0.53 0.00 100
20211025194728 57 181 6.0 0.0 0.00 0.48 0.00 100
20211025194528 58 154 7.0 0.0 0.00 0.47 0.00 100
20211025194412 57 147 8.0 0.0 0.00 0.44 0.00 100
20211025194125 57 147 8.0 0.0 0.00 0.44 0.00 100
20211025193923 57 156 7.0 0.0 0.00 0.43 0.00 100
20211025193522 57 66 7.0 0.0 0.00 0.41 0.00 100
20211025193119 57 109 6.0 0.0 0.00 0.39 0.00 100
20211025192916 57 135 5.0 0.0 0.00 0.37 0.00 100
20211025192313 57 154 8.0 0.0 0.00 0.35 0.00 100
20211025191911 56 132 9.0 0.0 0.00 0.33 0.00 100
20211025191507 56 156 1.0 0.0 0.00 0.31 0.00 100
20211025191306 56 143 4.0 0.0 0.00 0.30 0.00 100
20211025190702 56 94 6.0 0.0 0.00 0.26 0.00 100
20211025190259 56 119 6.0 0.0 0.00 0.24 0.00 100
20211025185857 56 49 2.0 0.0 0.00 0.23 0.00 100
20211025184245 56 80 1.0 0.0 0.00 0.19 0.00 100
20211025184045 56 125 7.0 0.0 0.00 0.19 0.00 100
20211025183439 56 104 7.0 0.0 0.00 0.18 0.00 100
20211025182835 56 144 4.0 0.0 0.00 0.18 0.00 100
20211025182433 56 289 1.0 0.0 0.00 0.17 0.00 100
20211025182030 56 75 6.0 0.0 0.00 0.17 0.00 100
20211025181828 56 135 8.0 0.0 0.00 0.16 0.00 100
20211025181224 56 171 10.0 0.0 0.00 0.13 0.00 100
20211025181023 56 147 4.0 0.0 0.00 0.12 0.00 100
20211025180821 56 151 4.0 0.0 0.00 0.12 0.00 100
20211025180620 56 182 5.0 0.0 0.00 0.11 0.00 100
20211025180217 56 120 5.0 0.0 0.00 0.11 0.00 100
20211025175613 55 156 7.0 0.0 0.00 0.11 0.00 100
20211025175413 56 105 7.0 0.0 0.00 0.11 0.00 100
20211025175009 55 111 7.0 0.0 0.00 0.11 0.00 100
20211025174002 56 85 5.0 0.0 0.00 0.10 0.00 100
20211025173559 56 163 5.0 0.0 0.00 0.10 0.00 100
20211025173358 55 54 6.0 0.0 0.00 0.10 0.00 100
20211025172753 55 177 10.0 0.0 0.00 0.09 0.00 100
20211025172552 55 142 5.0 0.0 0.00 0.09 0.00 100
20211025172351 55 144 6.0 0.0 0.00 0.09 0.00 100
20211025172150 56 94 10.0 0.0 0.00 0.09 0.00 100
20211025171344 55 172 7.0 0.0 0.00 0.08 0.00 100
20211025170337 55 154 6.0 0.0 0.00 0.07 0.00 100
20211025165934 56 172 5.0 0.0 0.00 0.06 0.00 100
20211025164927 55 87 4.0 0.0 0.00 0.05 0.00 100
20211025164725 55 168 6.0 0.0 0.00 0.05 0.00 100
20211025164523 55 149 5.0 0.0 0.00 0.05 0.00 100
20211025163920 55 101 5.0 0.0 0.00 0.05 0.00 100
20211025163719 55 29 0.0 0.0 0.00 0.05 0.00 100
20211025163315 55 113 4.0 0.0 0.00 0.04 0.00 100
20211025163114 55 113 10.0 0.0 0.00 0.04 0.00 100
20211025162712 55 151 3.0 0.0 0.00 0.04 0.00 100
20211025162108 55 95 5.0 0.0 0.00 0.04 0.00 100
20211025161705 55 90 6.0 0.0 0.00 0.04 0.00 100
20211025161303 55 189 5.0 0.0 0.00 0.04 0.00 100
20211025160900 55 33 4.0 0.0 0.00 0.04 0.00 100
20211025160659 55 133 5.0 0.0 0.00 0.04 0.00 100
20211025160458 55 135 7.0 0.0 0.00 0.03 0.00 100
20211025155450 55 213 5.0 0.0 0.00 0.03 0.00 100
20211025155048 55 189 3.0 0.0 0.00 0.03 0.00 100
20211025154847 56 171 7.0 0.0 0.00 0.03 0.00 100
20211025154645 55 157 5.0 0.0 0.00 0.03 0.00 100
20211025154444 55 122 2.0 0.0 0.00 0.03 0.00 100
20211025154243 55 92 4.0 0.0 0.00 0.03 0.00 100
20211025153840 55 64 1.0 0.0 0.00 0.03 0.00 100
20211025153438 55 54 3.0 0.0 0.00 0.03 0.00 100
20211025153236 55 177 4.0 0.0 0.00 0.03 0.00 100
20211025152834 55 122 9.0 0.0 0.00 0.02 0.00 100
20211025152431 55 149 5.0 0.0 0.00 0.02 0.00 100
20211025151626 55 175 3.0 0.0 0.00 0.01 0.00 100
20211025151424 55 142 3.0 0.0 0.00 0.01 0.00 100
20211025151021 55 32 0.0 0.0 0.00 0.01 0.00 100
20211025150820 55 149 3.0 0.0 0.00 0.01 0.00 100
20211025150620 55 74 0.0 0.0 0.00 0.01 0.00 100
20211025150216 55 111 3.0 0.0 0.00 0.01 0.00 100
20211025150015 55 50 4.0 0.0 0.00 0.01 0.00 100
20211025145612 55 127 0.0 0.0 0.00 0.01 0.00 100
20211025145209 55 95 2.0 0.0 0.00 0.01 0.00 100
20211025144807 55 123 2.0 0.0 0.00 0.01 0.00 100
20211025144605 55 85 5.0 0.0 0.00 0.01 0.00 100
20211025144404 55 91 6.0 0.0 0.00 0.01 0.00 100
20211025144203 55 90 5.0 0.0 0.00 0.00 0.00 100
20211025143559 55 105 4.0 0.0 0.00 0.00 0.00 100
20211025142753 55 95 7.0 0.0 0.00 0.00 0.00 85
20211025142351 55 71 4.0 0.0 0.00 0.00 0.00 85
20211025141948 55 50 6.0 0.0 0.00 0.00 0.00 85
20211025141747 55 119 4.0 0.0 0.00 0.00 0.00 85
20211025141344 55 98 5.0 0.0 0.00 0.00 0.00 85
20211025141143 55 219 6.0 0.0 0.00 0.00 0.00 85